Presidente Getulio, Brazil
Current Conditions -  °F | °C
As of 12:00 AM on Thursday 23 Oct 2014 (Local Time) from SBNF Reporting Station
Scattered Clouds Scattered Clouds  
Wind Chill: 70°   Ceiling: Unl
Heat Index: 70°   Visibility: 6mi
Dew Point: 61°   Wind: 9mph
Humidity: 73%   Direction: 80°E
Pressure: 30.21"   Gusts: NA
Location:  27.05°S, 49.62°W
Report Text: SBNF 230200Z 08008KT 9999 SCT030 21/16 Q1023
Loading
Personal Weather Stations






























Interactive Weather Map
Tropical Storm Tracking
New forecast layout! Learn more

10-Day Weather Forecast

Advertisements
Track Severe Weather on mobile